Retour au catalogue

STARLINK-6076

ActifCommunicationsVLEO
NORAD 56100·PAYLOAD·🇺🇸 United States

Lancé Mar 29, 2023 depuis Cape Canaveral Space Force Station

Loading…

Prochains Passages (prochaines 24 heures)

TLE

FraisSource: CelesTrak SupGP

Époque: Sep 14, 2026, 20:44 UTC

1 56100C 23046H   26257.86437500 -.00018592  00000+0 -67346-3 0  2574
2 56100  43.0007 172.8559 0001466 261.0395 235.8111 15.27584118    12

Suivez STARLINK-6076 en temps réel avec AllMySat

Download on the App Store